INTELSAT 25 (IS-25)

Last updated on Thu Nov 21 2024 00:02:41 GMT+0000 (Coordinated Universal Time)

1 33153U 08034A 24325.36653698 -.00000222 00000+0 00000+0 0 9997 2 33153 1.2232 87.3843 0003182 153.2518 279.7086 1.00271528 59941
UTC large
Height (km)
Speed (km/s)
/
Latitude / Longitude
Inclination (degrees)
Orbital Period (minutes)
Azimuth
Elevation
Range (km)
Doppler Factor

Next 0 passes for location: London (51.5072 / 0.1276)

Sorry there are no passes over London.